星链-34949 (STARLINK-34949)

导读 | 豆包AI

STARLINK-34949是美国SpaceX公司星链星座的成员卫星,于2025年8月14日发射入轨,运行在近地轨道。它是星链全球卫星互联网项目的组成部分,承担着为全球范围,特别是地面网络未覆盖的偏远、海洋及空中区域,提供高速低延迟宽带互联网接入服务的任务,助力星链持续扩展星座规模,完善全球网络覆盖能力。

基本信息
目录编号:
65175
目录名称:
STARLINK-34949
国际标识:
2025-175B
轨道中心:
EARTH
卫星名称:
星链-34949
卫星全名:
星链-34949 (STARLINK-34949)
卫星状态:
在轨 (已飞行258 天)
发射日期:
2025-08-14 UTC
国别 :
美国 (US)
星等 :
--
轨道信息
数据来源 国际轨道数据 AOE轨道数据
星历时间 2026-04-29T10:47:27+0800
7小时前
查看轨道信息
2026-04-22T21:00:00+0800
6天前
查看轨道信息
半长轴 6927.638km 6927.602km
偏心率 0.0002506 0.0001821
轨道倾角 97.562° 97.582°
近地点辐角 90.961° 30.434°
升交点赤经 352.259° 345.796°
平近点角 269.190° 355.534°
近地点 547.764km 548.203km
远地点 551.238km 550.727km
周期 95.640分钟 95.639分钟
每日圈数 15.056534 15.056652
详细信息
固有亮度:
5
最大亮度:
2.5
卫星平台:
Starlink V1.0
覆盖范围:
全球
运营商:
太空探索技术公司
运营商所在国:
美国
制造商(研发单位):
太空探索技术公司
制造商所在国:
美国
使用方式:
暂无
卫星简介
Starlink 计划是 SpaceX 推出的全球卫星互联网项目,通过发射低轨道卫星,为全球尤其是偏远地区提供高速、低延迟的互联网服务。自 2019 年起,Starlink 已部署数千颗卫星,旨在缩小全球数字鸿沟,推动互联网普及。该项目还为军事、航空等行业提供通信支持,带来广泛经济效益。
2D轨道图
3D轨道图
轨道高度分析图
轨道倾角分析图
轨道综合分析图
查看轨道综合分析图